Location: Okie-Tex Star Party
(36.8978°N, 102.9520°W)
Time: 11:45:49
(UTC-05:00)

Daily predictions for brighter satellites

Satellite Brightness Start Highest point End
(mag) Time Altitude Azimuth Time Altitude Azimuth Time Altitude Azimuth
Cosmos 1939 Rocket 3.8 21:26:34 10° SE 21:30:18 33° ENE 21:34:01 10° N
COSMOS 2487 2.8 21:26:48 10° NNW 21:30:20 69° WSW 21:33:50 10° S
Cosmos 1933 3.3 21:27:24 10° N 21:31:25 73° E 21:35:25 10° SSE
Timation 2 Rocket 4.1 21:25:10 10° NNW 21:31:32 81° ENE 21:38:10 10° SSE
ATLAS 5 CENTAUR R/B 4.2 21:31:10 10° N 21:35:06 18° NE 21:39:12 10° E
GPS 2-04 Rocket1 2.5 21:34:02 10° W 21:37:50 72° S 21:41:27 10° E
Cosmos 1937 Rocket 3.6 21:35:29 10° SSW 21:40:36 82° WNW 21:45:47 10° NNE
Meteor 2-10 Rocket 3.9 21:36:32 10° N 21:42:23 83° W 21:48:09 10° S
Aureole 3 4.5 21:40:58 10° SE 21:42:50 15° E 21:44:38 10° NE
H-2A R/B 4.2 21:44:23 10° ENE 21:45:40 11° ENE 21:46:57 10° NE
Resurs 1-3 4.1 21:43:42 10° S 21:48:01 61° W 21:52:22 10° NNW
Hubble Space Telescope 3.2 21:47:24 10° SW 21:48:28 11° SSW 21:49:33 10° S
Meteor 1-29 3.9 21:45:42 10° NE 21:48:46 28° E 21:51:48 10° SSE
Cosmos 1703 Rocket 4.2 21:48:31 10° N 21:52:38 37° ENE 21:56:29 11° SE
Cosmos 1408 4.1 21:52:26 12° SE 21:54:41 20° E 21:57:27 10° NE
DNEPR-1 R/B 4.4 21:50:40 10° S 21:55:47 39° ESE 22:00:09 10° NE
SJ-11-01 4.3 21:53:52 10° SSE 21:58:34 72° ENE 22:03:16 10° N
Meteor 2-3 Rocket 3.7 21:54:39 10° S 22:00:23 86° E 22:06:05 10° N
Cosmos 1782 4.1 21:59:28 10° NNE 22:02:48 25° ENE 22:04:51 17° ESE
Cosmos 2082 Rocket 4.1 21:58:59 10° NW 22:03:42 28° WSW 22:08:25 10° SSW
Meteor 1-26 Rocket 4.3 21:59:25 10° N 22:05:06 83° W 22:10:52 10° S
Cosmos 1825 3.3 22:03:11 16° SE 22:05:19 26° E 22:08:29 10° NNE
ERS-1 Rocket 3.7 22:03:32 15° SE 22:07:17 37° ENE 22:11:54 10° N
Cosmos 1869 Rocket 3.6 22:04:51 10° S 22:09:04 55° E 22:13:20 10° NNE
Helios 1B rocket 2.4 22:10:38 10° NNE 22:14:45 89° ESE 22:18:51 10° SSW
Cosmos 2084 3.6 22:11:51 10° NNW 22:15:36 50° NE 22:17:51 22° ESE
USA 186 4.3 22:18:59 10° SW 22:20:38 15° W 22:22:22 10° NW
Cosmos 1892 4.3 22:18:58 10° SSW 22:22:33 37° W 22:26:09 10° N
Lacrosse 4 Rocket 3.2 22:20:22 10° N 22:23:52 22° NE 22:25:48 17° E
ISS -1.8 22:21:02 10° W 22:23:58 30° NNW 22:26:53 10° NNE
OAO 3 Copernicus 4.5 22:20:00 10° WSW 22:24:50 50° SSE 22:28:15 19° E
MetOp-A 4.5 22:22:13 20° SE 22:25:40 49° ENE 22:30:48 10° N
USA 215 3.9 22:22:28 15° ESE 22:27:33 46° NE 22:33:45 10° NW
Cosmos 2221 Rocket 3.6 22:23:08 10° N 22:27:34 66° E 22:30:22 22° SSE
DELTA 2 R/B(2) 4.3 22:26:35 10° WNW 22:28:13 33° N 22:28:28 30° NNE
Cosmos 1943 Rocket 2.1 22:27:40 10° SSW 22:33:14 71° ESE 22:38:46 10° NNE
Terra 3.9 22:33:08 12° ENE 22:34:18 13° ENE 22:36:20 10° NE
Tiangong 2 1.2 22:31:49 10° WNW 22:35:00 62° SSW 22:35:46 44° SSE
Cosmos 2344 3.6 22:33:14 10° SSW 22:40:47 61° ESE 22:48:46 10° NE
Cosmos 1340 3.1 22:39:16 10° N 22:42:55 44° ENE 22:43:36 39° ESE
CZ-4B DEB 3.6 22:41:43 24° SSW 22:43:05 40° W 22:45:53 10° NNW
Cosmos 2263 4.4 22:37:23 10° SSW 22:43:09 76° WNW 22:48:55 10° NNE
SPOT 1/Viking Rocket 4.4 22:41:30 26° ESE 22:43:25 35° ENE 22:48:07 10° N
Cosmos 468 4.4 22:38:32 10° NNW 22:43:49 84° ENE 22:46:37 28° SSE
NOAA 11 4.1 22:40:47 22° SSE 22:44:27 87° ENE 22:49:58 10° NNW
Cosmos 372 Rocket 3.8 22:39:31 10° SSW 22:44:39 83° ESE 22:49:47 10° NNE
Cosmos 1634 Rocket 4.4 22:38:55 10° NNW 22:45:09 65° W 22:51:19 10° S
Helios 1A 4.2 22:42:20 11° SSW 22:46:00 37° W 22:49:56 10° NNW
SPOT 5 3.3 22:47:25 31° SE 22:49:45 55° ENE 22:54:56 10° N
CENTAUR R/B 2.7 22:45:40 10° SW 22:51:33 72° WNW 22:58:18 10° NNE
COSMOS 2455 4.3 22:47:27 10° SW 22:53:02 40° NW 22:58:40 10° NNE
SAR-Lupe-4 4.5 22:51:25 24° SSW 22:53:11 44° W 22:56:38 10° NNW
Cosmos 1269 Rocket 4.1 22:48:05 10° NNW 22:53:21 64° ENE 22:55:22 37° SE
Nadezhda 4 Rocket 4.2 22:51:21 29° SSE 22:54:12 50° E 23:00:08 10° NNE
Cosmos 2369 Rocket 3.5 22:49:56 10° SW 22:55:14 41° WNW 23:00:38 10° N
YAOGAN 11 4.4 22:54:13 40° SE 22:55:30 56° ENE 22:59:56 10° N
Cosmos 1125 Rocket 3.9 22:50:20 10° SSW 22:55:32 64° WNW 23:00:45 10° NNE
Cosmos 1606 2.8 22:53:55 10° NNW 22:57:41 70° W 22:58:52 41° SSW
Shenzhou-11 Module 3.6 22:55:15 10° W 22:57:31 26° SW 22:57:31 26° SW
Lacrosse 5 rocket 3.6 22:56:43 10° W 22:59:38 23° NW 23:02:36 10° NNE
Milstar 3 3.7 22:49:10 10° WSW 23:00:05 44° S 23:03:20 31° SE
USA 245 4.4 22:58:23 31° SSE 23:01:34 80° ENE 23:07:57 10° N
Cosmos 1833 4.4 22:58:24 10° NNW 23:04:07 58° ENE 23:05:59 40° ESE
GPS 2-04 Rocket1 3.3 23:13:51 10° W 23:16:29 40° WSW 23:16:29 40° WSW
Cosmos 2279 Rocket 4.4 23:12:43 10° NNW 23:18:51 59° W 23:22:39 24° SSW
ATLAS 5 CENTAUR R/B 2.4 23:14:26 10° NNW 23:20:34 85° ENE 23:22:41 46° SE
Cosmos 1867 4.5 23:16:34 10° NNW 23:21:33 35° NE 23:22:44 31° E
Meteor 1-27 Rocket 3.7 23:18:05 10° N 23:23:51 80° W 23:25:44 44° S
H-2A R/B 2.0 23:22:47 50° SSE 23:24:17 89° ENE 23:29:39 10° NNW
Cosmos 494 Rocket 4.3 23:24:00 10° N 23:29:02 47° ENE 23:29:25 46° E
ARGOS 3.7 23:29:08 33° SSW 23:31:13 51° W 23:36:27 10° NNW
Cosmos 1656 Rocket 3.5 23:29:16 34° SSW 23:31:44 85° WNW 23:37:16 10° NNE
Cosmos 1733 Rocket 3.8 23:38:50 41° WSW 23:39:44 48° W 23:43:56 10° N
Sich 1 Rocket 4.0 23:49:49 55° NNE 23:49:49 55° NNE 23:53:21 10° N
Intercosmos 25 Rocket 4.2 23:44:12 10° NNW 23:50:53 63° W 23:51:30 57° SW
